Flag for Saudi Arabia Weather past 2 weeks in Jeddah, Saudi Arabia

Now
79 °F

Clear.


Feels Like: 81 °F
Forecast: 72 / 85 °F
Wind: 6 mph from Southeast

Location: Jeddah King Abdul Aziz International Airport

Current Time: Jan 28, 2015 at 2:25:04 AM

Latest Report: Jan 28, 2015 at 2:00 AM


Visibility: 10 mi

Pressure: 29.89 "Hg

Humidity: 70%

Dew point: 68 °F

Location of JeddahLocation

Historic Weather in Jeddah — Graph

°F

Jeddah temperature yesterday

Maximum temperature yesterday: 86 °F (at 11:00 AM)
Minimum temperature yesterday: 73 °F (at 4:00 AM)
Average temperature yesterday: 79 °F

Past Weeks' High & Low Weather Summary

 TemperatureHumidityPressure
High95 °F (Jan 23, 2:00 PM)83% (Jan 25, 7:00 AM)30.09 "Hg (Jan 25, 7:00 AM)
Low55 °F (Jan 21, 7:00 AM)6% (Jan 23, 2:00 PM)29.86 "Hg (Jan 23, 3:00 PM)
Average75 °F48%29.99 "Hg
* Reported Jan 13 1:00 AM — Jan 28 1:00 AM, Jeddah, Weather by CustomWeather, © 2014

Note: Actual official high and low records may vary slightly from our data, if they occured in-between our weather recording intervals... More about our weather records

Advertising

Jeddah weather history for previous 24 hours

 ConditionsComfort  
Time TempWeatherWind HumidityBarometerVisibility
1:00 AM
Jan 28
79 °FClear.6 mph70%29.89 "Hg10 mi
12:00 AM79 °FClear.6 mph70%29.92 "Hg10 mi
11:00 PM
Jan 27
79 °FClear.5 mph70%29.92 "Hg10 mi
10:00 PM79 °FPassing clouds.5 mph70%29.92 "HgN/A
9:00 PM81 °FPassing clouds.9 mph66%29.92 "HgN/A
8:00 PM81 °FPassing clouds.12 mph66%29.89 "HgN/A
7:00 PM81 °FPassing clouds.12 mph70%29.89 "HgN/A
6:00 PM81 °FPassing clouds.14 mph70%29.86 "HgN/A
5:00 PM82 °FSunny.14 mph62%29.86 "Hg10 mi
4:00 PM84 °FSunny.16 mph58%29.86 "Hg10 mi
3:00 PM84 °FSunny.18 mph62%29.86 "Hg10 mi
2:00 PM86 °FSunny.14 mph52%29.89 "Hg10 mi
1:00 PM84 °FSunny.7 mph55%29.92 "Hg10 mi
12:00 PM86 °FSunny.5 mph49%29.92 "Hg10 mi
11:00 AM86 °FSunny.No wind49%29.95 "Hg10 mi
10:00 AM82 °FSunny.No wind55%29.98 "Hg10 mi
9:00 AM79 °FSunny.7 mph61%29.95 "Hg10 mi
8:00 AM73 °FSunny.7 mph78%29.95 "Hg10 mi
7:00 AM73 °FClear.5 mph78%29.95 "Hg10 mi
6:00 AM73 °FClear.2 mph74%29.95 "Hg10 mi
5:00 AM73 °FClear.5 mph78%29.95 "Hg10 mi
4:00 AM73 °FClear.2 mph78%29.95 "Hg10 mi
3:00 AM75 °FClear.5 mph78%29.95 "Hg10 mi
2:00 AM75 °FClear.5 mph74%29.95 "Hg10 mi
Weather by CustomWeather, © 2014

See weather overviewHow to use our weather pages